Terminal Aerodrome Forecast
Issued by NWS Pittsburgh, PA

Current Version | Previous Version | Graphics & Text | Print | Product List | Glossary On
Versions: 1 2 3 4 5 6 7 8 9 10 11 12 13 14 15 16 17 18 19 20 21 22 23 24 25 26 27 28 29 30 31 32 33
000
FTUS41 KPBZ 302200 AAC
TAFPIT
TAF AMD
KPIT 302248Z 3023/3124 31008KT 6SM -SHSN BKN035
      TEMPO 3023/3102 4SM -SHSN BKN015
     FM310800 28005KT P6SM SCT015
     FM311700 24006KT P6SM SCT040=

USA.gov is the U.S. government's official web portal to all federal, state and local government web resources and services.